Total_Precipitation_Accumulation
2.27 2.30 2.27 2.26 2.10 2.26 2.49 2.88 2.86 3.09 3.05 2.73 2.33 2.17 2.17 2.22 2.15 2.27 2.53 2.55 2.37 2.41 3.10 3.47 3.35 3.04 2.60 2.17 1.92 1.78 1.69 1.51 1.32 1.06 0.96 1.04 1.09 1.07 0.94 0.75 0.66 0.56 0.44
2.69 2.70 2.61 2.58 2.37 2.37 2.68 2.95 3.03 3.49 3.37 3.23 2.74 2.49 2.34 2.30 2.27 2.40 2.65 2.83 2.77 2.72 3.10 3.55 3.74 3.64 3.26 2.70 2.25 1.99 1.93 1.85 1.64 1.24 1.05 1.08 1.16 1.14 1.08 0.96 0.77 0.61 0.48
2.85 2.77 2.78 2.66 2.68 2.73 2.89 2.96 3.13 3.52 3.32 3.25 3.09 2.81 2.58 2.42 2.32 2.50 2.82 3.12 2.84 2.75 3.07 3.50 3.86 3.78 3.59 3.29 2.75 2.40 2.14 1.93 1.78 1.48 1.19 1.07 1.07 1.05 1.03 1.02 0.90 0.68 0.50
2.94 3.00 2.82 2.67 2.84 2.92 3.08 3.30 3.31 3.40 3.50 3.49 3.32 2.98 2.82 2.72 2.36 2.46 2.62 2.78 2.97 2.57 2.94 3.51 3.73 3.49 3.46 3.61 3.54 3.28 2.88 2.39 2.07 1.73 1.43 1.26 1.18 1.10 1.05 1.03 0.95 0.76 0.53
2.87 3.18 3.02 3.03 3.12 3.31 3.20 2.98 3.44 3.58 3.55 3.52 3.11 3.03 2.68 2.63 2.52 2.41 2.52 2.55 2.77 2.73 2.76 2.85 3.30 3.16 3.35 3.80 4.06 4.13 3.85 3.31 2.70 2.24 1.88 1.65 1.54 1.33 1.14 1.05 0.94 0.75 0.56
2.86 3.16 2.96 2.97 3.18 3.49 3.57 3.52 3.71 3.60 3.45 3.52 3.03 2.88 2.56 2.33 2.31 2.24 2.08 2.30 2.40 2.16 2.30 2.49 2.86 2.44 2.65 3.13 3.60 4.12 4.37 4.28 3.67 2.95 2.60 2.38 2.21 1.81 1.35 1.12 0.97 0.82 0.65
2.83 3.13 2.86 3.18 3.24 3.39 3.57 3.59 3.76 3.66 3.44 3.53 3.44 2.97 2.45 2.14 2.04 1.87 1.89 2.05 1.99 2.03 2.32 2.67 2.90 2.83 2.49 2.46 2.69 3.30 4.13 4.66 4.46 3.81 3.43 3.19 2.97 2.49 1.77 1.37 1.06 0.87 0.76
2.72 2.81 3.22 3.20 3.26 3.43 3.46 3.41 3.49 3.36 3.11 3.37 3.48 3.33 2.71 2.35 1.96 1.62 1.80 1.78 1.91 2.16 2.19 2.20 2.52 2.84 2.70 2.76 2.39 2.41 3.43 4.44 4.90 4.73 4.45 4.09 3.67 2.93 2.22 1.76 1.32 1.01 0.88
2.86 2.96 3.17 3.24 3.22 3.09 3.22 3.37 3.22 3.16 3.05 3.11 3.27 3.32 2.85 2.39 1.98 1.70 1.58 1.61 1.96 2.17 2.11 2.07 2.01 2.19 2.29 2.71 2.90 2.49 2.66 3.03 3.78 4.71 5.12 4.98 4.21 3.09 2.38 2.02 1.74 1.33 1.02
2.65 2.75 2.83 2.98 3.06 2.98 3.04 2.97 2.98 3.05 3.03 2.87 3.00 2.95 2.80 2.60 2.41 1.94 1.56 1.53 1.75 1.88 1.89 1.76 1.82 2.07 2.20 2.58 2.81 2.36 2.08 2.03 2.33 3.36 4.38 4.64 4.18 3.16 2.45 2.24 2.25 1.97 1.44
2.46 2.41 2.54 2.70 2.75 2.67 2.62 2.82 3.07 3.02 2.85 2.72 2.79 2.82 2.94 2.84 2.55 2.24 1.81 1.67 1.60 1.47 1.58 1.63 1.69 1.78 2.00 2.36 2.57 2.14 1.98 1.77 1.70 2.07 2.77 3.31 3.47 3.14 2.69 2.59 2.80 2.78 2.36
2.36 2.28 2.28 2.43 2.51 2.49 2.46 2.54 2.64 2.69 2.66 2.74 2.74 2.68 2.81 2.79 2.66 2.52 2.08 1.80 1.65 1.31 1.34 1.42 1.55 1.64 1.75 1.94 1.80 1.75 1.83 1.66 1.50 1.50 1.76 2.17 2.55 2.70 2.59 2.67 2.94 3.10 3.09
2.25 2.23 2.18 2.21 2.16 2.14 2.22 2.42 2.44 2.40 2.46 2.55 2.53 2.57 2.50 2.40 2.43 2.43 2.26 1.93 1.72 1.35 1.35 1.28 1.31 1.42 1.37 1.67 1.78 1.72 1.62 1.51 1.39 1.38 1.41 1.50 1.75 1.97 2.17 2.34 2.65 2.97 3.20
2.21 2.13 1.99 1.91 1.84 1.85 1.91 2.18 2.33 2.29 2.36 2.39 2.30 2.42 2.28 2.15 2.26 2.25 2.22 2.25 2.06 1.83 1.76 1.58 1.27 1.23 1.31 1.43 1.51 1.53 1.42 1.36 1.22 1.17 1.15 1.17 1.27 1.42 1.58 1.79 2.03 2.21 2.40
1.87 1.86 1.81 1.72 1.67 1.70 1.78 1.87 1.95 1.94 2.06 2.08 2.15 2.14 1.99 1.97 2.05 2.07 2.18 2.30 2.30 2.16 2.06 1.89 1.48 1.22 1.24 1.41 1.59 1.40 1.34 1.23 1.13 1.05 0.96 0.96 0.99 1.06 1.15 1.26 1.46 1.62 1.69
1.86 1.76 1.68 1.60 1.56 1.52 1.56 1.68 1.68 1.72 1.74 1.73 1.90 1.95 1.91 1.89 1.99 1.96 2.03 2.17 2.31 2.36 2.15 1.89 1.68 1.37 1.39 1.32 1.47 1.41 1.38 1.28 1.09 0.94 0.83 0.80 0.85 0.92 0.99 1.05 1.13 1.25 1.30
1.90 1.86 1.74 1.66 1.52 1.43 1.46 1.51 1.43 1.55 1.59 1.56 1.61 1.64 1.69 1.80 1.93 1.92 1.95 2.00 2.21 2.43 2.31 2.13 1.98 1.83 1.70 1.57 1.40 1.38 1.36 1.27 1.08 0.93 0.78 0.72 0.75 0.77 0.81 0.88 0.97 1.08 1.16
1.58 1.58 1.55 1.53 1.52 1.56 1.59 1.50 1.43 1.43 1.47 1.46 1.52 1.62 1.60 1.75 1.88 1.84 1.92 1.97 2.16 2.45 2.54 2.65 2.63 2.33 2.01 1.80 1.70 1.52 1.22 1.12 1.13 1.00 0.85 0.75 0.70 0.72 0.73 0.76 0.83 0.96 1.07
1.50 1.50 1.51 1.46 1.44 1.57 1.68 1.65 1.58 1.58 1.60 1.49 1.56 1.63 1.57 1.64 1.70 1.73 1.82 1.94 2.11 2.29 2.49 2.52 2.60 2.42 2.22 1.92 1.98 1.74 1.44 1.35 1.09 1.03 0.94 0.80 0.71 0.70 0.70 0.75 0.79 0.84 0.91
1.53 1.58 1.56 1.48 1.48 1.44 1.47 1.60 1.67 1.64 1.60 1.54 1.53 1.51 1.44 1.44 1.49 1.62 1.66 1.84 2.03 2.20 2.32 2.31 2.37 2.43 2.45 2.39 2.37 2.14 1.95 1.69 1.37 1.07 1.04 0.88 0.81 0.77 0.73 0.71 0.74 0.82 0.92
1.47 1.63 1.59 1.52 1.49 1.45 1.34 1.39 1.51 1.49 1.50 1.46 1.42 1.29 1.15 1.17 1.24 1.33 1.36 1.65 1.90 2.01 2.11 2.18 2.27 2.43 2.53 2.69 2.53 2.41 2.27 2.12 1.82 1.52 1.49 1.19 1.06 0.92 0.80 0.77 0.77 0.78 0.84
1.53 1.57 1.50 1.49 1.42 1.21 1.22 1.23 1.21 1.25 1.32 1.32 1.34 1.36 1.23 1.08 1.03 1.09 1.11 1.26 1.52 1.67 1.86 2.11 2.26 2.45 2.54 2.53 2.68 2.64 2.54 2.37 2.16 1.90 1.87 1.80 1.63 1.49 1.24 0.98 0.92 0.82 0.75
1.49 1.42 1.35 1.35 1.32 1.23 1.10 1.01 1.00 1.11 1.25 1.29 1.32 1.36 1.17 1.04 1.04 0.96 1.04 1.12 1.17 1.24 1.37 1.71 1.99 2.11 2.15 2.19 2.46 2.58 2.57 2.45 2.37 2.19 2.21 2.23 2.07 1.84 1.46 1.25 1.16 0.97 0.85
1.39 1.41 1.32 1.28 1.34 1.23 1.13 0.97 0.87 0.86 1.02 1.10 1.12 1.16 1.18 1.18 1.11 1.09 1.07 1.08 1.04 1.06 1.12 1.18 1.34 1.49 1.72 1.91 2.12 2.36 2.59 2.55 2.50 2.43 2.39 2.48 2.32 2.17 1.80 1.47 1.29 1.06 0.96
1.39 1.38 1.37 1.38 1.38 1.35 1.25 1.07 0.99 0.99 1.12 1.15 1.19 1.20 1.24 1.29 1.26 1.10 1.05 1.08 1.13 1.17 1.13 1.17 1.14 1.18 1.29 1.41 1.59 1.84 2.14 2.45 2.67 2.67 2.47 2.51 2.43 2.43 2.34 1.91 1.48 1.24 1.02
1.42 1.40 1.46 1.47 1.44 1.43 1.28 1.07 1.03 1.09 1.27 1.36 1.49 1.49 1.37 1.23 1.20 1.06 1.06 1.16 1.15 1.16 1.11 1.08 1.04 1.01 1.02 1.14 1.28 1.46 1.69 1.98 2.24 2.39 2.34 2.44 2.57 2.83 2.92 2.42 1.83 1.39 1.17